Location: Unspecified
(35.6961°N, 0.0000°E)
Time: 00:31:00
(UTC+00:00)

SR - Visible Passes

Search period start: 16 October 2019 00:00
Search period end: 26 October 2019 00:00
Orbit: 575 x 881 km, 66.7° (Epoch: 15 October)

Date Brightness Start Highest point End Pass type
(mag) Time Alt. Az. Time Alt. Az. Time Alt. Az.
20 Oct ? 05:28:36 10° NNE 05:31:02 12° NE 05:33:28 10° ENE visible
22 Oct ? 05:29:54 10° N 05:34:19 21° NE 05:38:42 10° E visible
23 Oct ? 04:41:57 10° NNE 04:44:04 12° NE 04:46:10 10° ENE visible
24 Oct ? 05:32:00 10° N 05:37:26 36° NE 05:42:45 10° ESE visible
25 Oct ? 04:43:05 10° N 04:47:23 20° NE 04:51:37 10° E visible
